Time,TemperatureF,DewpointF,PressureIn,WindDirection,WindDirectionDegrees,WindSpeedMPH,WindSpeedGustMPH,Humidity,HourlyPrecipIn,Conditions,Clouds,dailyrainin,SoftwareType,DateUTC
2013-02-10 00:02:00,7.0,-99.9,-100.00,North,-999,-999.0,-999.0,-999,0.00,,,0.93,,2013-02-10 05:02:00,
2013-02-10 00:11:00,7.0,-99.9,-100.00,North,-999,-999.0,-999.0,-999,0.00,,,0.93,,2013-02-10 05:11:00,
2013-02-10 00:23:00,7.0,-99.9,-100.00,North,-999,-999.0,-999.0,-999,0.00,,,0.93,,2013-02-10 05:23:00,
2013-02-10 00:30:00,7.0,-99.9,-100.00,North,-999,-999.0,-999.0,-999,0.00,,,0.81,,2013-02-10 05:30:00,
2013-02-10 00:53:00,7.0,-99.9,-100.00,North,-999,-999.0,-999.0,-999,0.00,,,0.81,,2013-02-10 05:53:00,
2013-02-10 01:02:00,7.0,-99.9,-100.00,North,-999,-999.0,-999.0,-999,0.00,,,0.81,,2013-02-10 06:02:00,
2013-02-10 01:11:00,7.0,-99.9,-100.00,North,-999,-999.0,-999.0,-999,0.00,,,0.81,,2013-02-10 06:11:00,
2013-02-10 01:22:00,7.0,-99.9,-100.00,North,-999,-999.0,-999.0,-999,0.00,,,0.81,,2013-02-10 06:22:00,
2013-02-10 01:30:00,6.0,-99.9,-100.00,North,-999,-999.0,-999.0,-999,0.00,,,0.57,,2013-02-10 06:30:00,
2013-02-10 01:52:00,6.0,-99.9,-100.00,North,-999,-999.0,-999.0,-999,0.00,,,0.57,,2013-02-10 06:52:00,
2013-02-10 02:02:00,6.0,-99.9,-100.00,North,-999,-999.0,-999.0,-999,0.00,,,0.57,,2013-02-10 07:02:00,
2013-02-10 02:11:00,6.0,-99.9,-100.00,North,-999,-999.0,-999.0,-999,0.00,,,0.57,,2013-02-10 07:11:00,
2013-02-10 02:22:00,6.0,-99.9,-100.00,North,-999,-999.0,-999.0,-999,0.00,,,0.57,,2013-02-10 07:22:00,
2013-02-10 02:30:00,5.0,-99.9,-100.00,North,-999,-999.0,-999.0,-999,0.00,,,0.34,,2013-02-10 07:30:00,
2013-02-10 02:42:00,5.0,-99.9,-100.00,North,-999,-999.0,-999.0,-999,0.00,,,0.41,,2013-02-10 07:42:00,
2013-02-10 02:52:00,5.0,-99.9,-100.00,North,-999,-999.0,-999.0,-999,0.00,,,0.34,,2013-02-10 07:52:00,
2013-02-10 03:01:00,5.0,-99.9,-100.00,North,-999,-999.0,-999.0,-999,0.00,,,0.34,,2013-02-10 08:01:00,
2013-02-10 03:11:00,5.0,-99.9,-100.00,North,-999,-999.0,-999.0,-999,0.00,,,0.34,,2013-02-10 08:11:00,
2013-02-10 03:22:00,5.0,-99.9,-100.00,North,-999,-999.0,-999.0,-999,0.00,,,0.34,,2013-02-10 08:22:00,
2013-02-10 03:30:00,5.0,-99.9,-100.00,North,-999,-999.0,-999.0,-999,0.00,,,0.17,,2013-02-10 08:30:00,
2013-02-10 03:52:00,5.0,-99.9,-100.00,North,-999,-999.0,-999.0,-999,0.00,,,0.17,,2013-02-10 08:52:00,
2013-02-10 04:02:00,5.0,-99.9,-100.00,North,-999,-999.0,-999.0,-999,0.00,,,0.17,,2013-02-10 09:02:00,
2013-02-10 04:11:00,5.0,-99.9,-100.00,North,-999,-999.0,-999.0,-999,0.00,,,0.17,,2013-02-10 09:11:00,
2013-02-10 04:22:00,5.0,-99.9,-100.00,North,-999,-999.0,-999.0,-999,0.00,,,0.17,,2013-02-10 09:22:00,
2013-02-10 05:30:00,-2.0,-99.9,-100.00,North,-999,-999.0,-999.0,-999,0.00,,,0.06,,2013-02-10 10:30:00,
2013-02-10 05:52:00,-2.0,-99.9,-100.00,North,-999,-999.0,-999.0,-999,0.00,,,0.06,,2013-02-10 10:52:00,
2013-02-10 06:02:00,-2.0,-99.9,-100.00,North,-999,-999.0,-999.0,-999,0.00,,,0.06,,2013-02-10 11:02:00,
2013-02-10 06:11:00,-2.0,-99.9,-100.00,North,-999,-999.0,-999.0,-999,0.00,,,0.06,,2013-02-10 11:11:00,
2013-02-10 06:22:00,-2.0,-99.9,-100.00,North,-999,-999.0,-999.0,-999,0.00,,,0.06,,2013-02-10 11:22:00,
2013-02-10 06:30:00,-4.0,-99.9,-100.00,North,-999,-999.0,-999.0,-999,0.00,,,0.04,,2013-02-10 11:30:00,
2013-02-10 06:52:00,-4.0,-99.9,-100.00,North,-999,-999.0,-999.0,-999,0.00,,,0.04,,2013-02-10 11:52:00,
2013-02-10 07:02:00,-4.0,-99.9,-100.00,North,-999,-999.0,-999.0,-999,0.00,,,0.04,,2013-02-10 12:02:00,
2013-02-10 07:12:00,-4.0,-99.9,-100.00,North,-999,-999.0,-999.0,-999,0.00,,,0.04,,2013-02-10 12:12:00,
2013-02-10 07:22:00,-4.0,-99.9,-100.00,North,-999,-999.0,-999.0,-999,0.00,,,0.04,,2013-02-10 12:22:00,
2013-02-10 07:30:00,-5.0,-99.9,-100.00,North,-999,-999.0,-999.0,-999,0.00,,,0.02,,2013-02-10 12:30:00,
2013-02-10 07:53:00,-5.0,-99.9,-100.00,North,-999,-999.0,-999.0,-999,0.00,,,0.02,,2013-02-10 12:53:00,
2013-02-10 08:02:00,-5.0,-99.9,-100.00,North,-999,-999.0,-999.0,-999,0.00,,,0.02,,2013-02-10 13:02:00,
2013-02-10 08:12:00,-5.0,-99.9,-100.00,North,-999,-999.0,-999.0,-999,0.00,,,0.02,,2013-02-10 13:12:00,
2013-02-10 08:22:00,-5.0,-99.9,-100.00,North,-999,-999.0,-999.0,-999,0.00,,,0.02,,2013-02-10 13:22:00,
2013-02-10 08:52:00,-4.0,-99.9,-100.00,North,-999,-999.0,-999.0,-999,0.00,,,0.02,,2013-02-10 13:52:00,
2013-02-10 09:02:00,-4.0,-99.9,-100.00,North,-999,-999.0,-999.0,-999,0.00,,,0.02,,2013-02-10 14:02:00,
2013-02-10 09:12:00,-4.0,-99.9,-100.00,North,-999,-999.0,-999.0,-999,0.00,,,0.02,,2013-02-10 14:12:00,
2013-02-10 09:22:00,-4.0,-99.9,-100.00,North,-999,-999.0,-999.0,-999,0.00,,,0.02,,2013-02-10 14:22:00,
2013-02-10 09:30:00,17.0,-99.9,-100.00,North,-999,-999.0,-999.0,-999,-99.99,,,0.01,,2013-02-10 14:30:00,
2013-02-10 09:53:00,17.0,-99.9,-100.00,North,-999,-999.0,-999.0,-999,-99.99,,,0.01,,2013-02-10 14:53:00,
2013-02-10 10:03:00,17.0,-99.9,-100.00,North,-999,-999.0,-999.0,-999,-99.99,,,0.01,,2013-02-10 15:03:00,
2013-02-10 10:12:00,17.0,-99.9,-100.00,North,-999,-999.0,-999.0,-999,-99.99,,,0.01,,2013-02-10 15:12:00,
2013-02-10 10:22:00,17.0,-99.9,-100.00,North,-999,-999.0,-999.0,-999,-99.99,,,0.01,,2013-02-10 15:22:00,
2013-02-10 10:30:00,21.0,-99.9,-100.00,North,-999,-999.0,-999.0,-999,0.00,,,0.00,,2013-02-10 15:30:00,
2013-02-10 10:53:00,21.0,-99.9,-100.00,North,-999,-999.0,-999.0,-999,0.00,,,0.00,,2013-02-10 15:53:00,
2013-02-10 11:03:00,21.0,-99.9,-100.00,North,-999,-999.0,-999.0,-999,0.00,,,0.00,,2013-02-10 16:03:00,
2013-02-10 11:12:00,21.0,-99.9,-100.00,North,-999,-999.0,-999.0,-999,0.00,,,0.00,,2013-02-10 16:12:00,
2013-02-10 11:22:00,21.0,-99.9,-100.00,North,-999,-999.0,-999.0,-999,0.00,,,0.00,,2013-02-10 16:22:00,
2013-02-10 11:30:00,23.0,-99.9,-100.00,North,-999,-999.0,-999.0,-999,0.00,,,0.00,,2013-02-10 16:30:00,
2013-02-10 11:53:00,23.0,-99.9,-100.00,North,-999,-999.0,-999.0,-999,0.00,,,0.00,,2013-02-10 16:53:00,
2013-02-10 12:02:00,23.0,-99.9,-100.00,North,-999,-999.0,-999.0,-999,0.00,,,0.00,,2013-02-10 17:02:00,
2013-02-10 12:22:00,23.0,-99.9,-100.00,North,-999,-999.0,-999.0,-999,0.00,,,0.00,,2013-02-10 17:22:00,
2013-02-10 12:30:00,23.0,-99.9,-100.00,North,-999,-999.0,-999.0,-999,0.00,,,0.00,,2013-02-10 17:30:00,
2013-02-10 12:53:00,23.0,-99.9,-100.00,North,-999,-999.0,-999.0,-999,0.00,,,0.00,,2013-02-10 17:53:00,
2013-02-10 13:03:00,23.0,-99.9,-100.00,North,-999,-999.0,-999.0,-999,0.00,,,0.00,,2013-02-10 18:03:00,
2013-02-10 13:12:00,23.0,-99.9,-100.00,North,-999,-999.0,-999.0,-999,0.00,,,0.00,,2013-02-10 18:12:00,
2013-02-10 13:22:00,23.0,-99.9,-100.00,North,-999,-999.0,-999.0,-999,0.00,,,0.00,,2013-02-10 18:22:00,
2013-02-10 13:30:00,24.0,-99.9,-100.00,North,-999,-999.0,-999.0,-999,0.00,,,0.00,,2013-02-10 18:30:00,
2013-02-10 14:02:00,24.0,-99.9,-100.00,North,-999,-999.0,-999.0,-999,0.00,,,0.00,,2013-02-10 19:02:00,
2013-02-10 14:12:00,24.0,-99.9,-100.00,North,-999,-999.0,-999.0,-999,0.00,,,0.00,,2013-02-10 19:12:00,
2013-02-10 14:22:00,24.0,-99.9,-100.00,North,-999,-999.0,-999.0,-999,0.00,,,0.00,,2013-02-10 19:22:00,
2013-02-10 14:30:00,26.0,-99.9,-100.00,North,-999,-999.0,-999.0,-999,0.00,,,0.00,,2013-02-10 19:30:00,
2013-02-10 14:52:00,26.0,-99.9,-100.00,North,-999,-999.0,-999.0,-999,0.00,,,0.00,,2013-02-10 19:52:00,
2013-02-10 15:02:00,26.0,-99.9,-100.00,North,-999,-999.0,-999.0,-999,0.00,,,0.00,,2013-02-10 20:02:00,
2013-02-10 15:12:00,26.0,-99.9,-100.00,North,-999,-999.0,-999.0,-999,0.00,,,0.00,,2013-02-10 20:12:00,
2013-02-10 15:22:00,26.0,-99.9,-100.00,North,-999,-999.0,-999.0,-999,0.00,,,0.00,,2013-02-10 20:22:00,
2013-02-10 15:30:00,28.0,-99.9,-100.00,North,-999,-999.0,-999.0,-999,0.00,,,0.00,,2013-02-10 20:30:00,
2013-02-10 15:53:00,28.0,-99.9,-100.00,North,-999,-999.0,-999.0,-999,0.00,,,0.00,,2013-02-10 20:53:00,
2013-02-10 16:03:00,28.0,-99.9,-100.00,North,-999,-999.0,-999.0,-999,0.00,,,0.00,,2013-02-10 21:03:00,
2013-02-10 16:12:00,28.0,-99.9,-100.00,North,-999,-999.0,-999.0,-999,0.00,,,0.00,,2013-02-10 21:12:00,
2013-02-10 16:30:00,24.0,-99.9,-100.00,North,-999,-999.0,-999.0,-999,0.00,,,0.00,,2013-02-10 21:30:00,
2013-02-10 16:53:00,24.0,-99.9,-100.00,North,-999,-999.0,-999.0,-999,0.00,,,0.00,,2013-02-10 21:53:00,
2013-02-10 17:02:00,24.0,-99.9,-100.00,North,-999,-999.0,-999.0,-999,0.00,,,0.00,,2013-02-10 22:02:00,
2013-02-10 17:12:00,24.0,-99.9,-100.00,North,-999,-999.0,-999.0,-999,0.00,,,0.00,,2013-02-10 22:12:00,
2013-02-10 17:22:00,24.0,-99.9,-100.00,North,-999,-999.0,-999.0,-999,0.00,,,0.00,,2013-02-10 22:22:00,
2013-02-10 17:30:00,21.0,-99.9,-100.00,North,-999,-999.0,-999.0,-999,0.00,,,0.00,,2013-02-10 22:30:00,
2013-02-10 17:53:00,21.0,-99.9,-100.00,North,-999,-999.0,-999.0,-999,0.00,,,0.00,,2013-02-10 22:53:00,
2013-02-10 18:02:00,21.0,-99.9,-100.00,North,-999,-999.0,-999.0,-999,0.00,,,0.00,,2013-02-10 23:02:00,
2013-02-10 18:12:00,21.0,-99.9,-100.00,North,-999,-999.0,-999.0,-999,0.00,,,0.00,,2013-02-10 23:12:00,
2013-02-10 18:22:00,21.0,-99.9,-100.00,North,-999,-999.0,-999.0,-999,0.00,,,0.00,,2013-02-10 23:22:00,
2013-02-10 18:30:00,18.0,-99.9,-100.00,North,-999,-999.0,-999.0,-999,0.00,,,-99.99,,2013-02-10 23:30:00,
2013-02-10 18:53:00,18.0,-99.9,-100.00,North,-999,-999.0,-999.0,-999,0.00,,,-99.99,,2013-02-10 23:53:00,
2013-02-10 19:02:00,18.0,-99.9,-100.00,North,-999,-999.0,-999.0,-999,0.00,,,-99.99,,2013-02-11 00:02:00,
2013-02-10 19:11:00,18.0,-99.9,-100.00,North,-999,-999.0,-999.0,-999,0.00,,,-99.99,,2013-02-11 00:11:00,
2013-02-10 19:22:00,18.0,-99.9,-100.00,North,-999,-999.0,-999.0,-999,0.00,,,-99.99,,2013-02-11 00:22:00,
2013-02-10 19:30:00,16.0,-99.9,-100.00,North,-999,-999.0,-999.0,-999,0.00,,,0.00,,2013-02-11 00:30:00,
2013-02-10 19:52:00,16.0,-99.9,-100.00,North,-999,-999.0,-999.0,-999,0.00,,,0.00,,2013-02-11 00:52:00,
2013-02-10 20:02:00,16.0,-99.9,-100.00,North,-999,-999.0,-999.0,-999,0.00,,,0.00,,2013-02-11 01:02:00,
2013-02-10 20:12:00,16.0,-99.9,-100.00,North,-999,-999.0,-999.0,-999,0.00,,,0.00,,2013-02-11 01:12:00,
2013-02-10 20:22:00,16.0,-99.9,-100.00,North,-999,-999.0,-999.0,-999,0.00,,,0.00,,2013-02-11 01:22:00,
2013-02-10 20:30:00,14.0,-99.9,-100.00,North,-999,-999.0,-999.0,-999,0.00,,,0.00,,2013-02-11 01:30:00,
2013-02-10 20:42:00,14.0,-99.9,-100.00,North,-999,-999.0,-999.0,-999,0.00,,,0.00,,2013-02-11 01:42:00,
2013-02-10 20:52:00,14.0,-99.9,-100.00,North,-999,-999.0,-999.0,-999,0.00,,,0.00,,2013-02-11 01:52:00,
2013-02-10 21:01:00,14.0,-99.9,-100.00,North,-999,-999.0,-999.0,-999,0.00,,,0.00,,2013-02-11 02:01:00,
2013-02-10 21:11:00,14.0,-99.9,-100.00,North,-999,-999.0,-999.0,-999,0.00,,,0.00,,2013-02-11 02:11:00,
2013-02-10 21:22:00,14.0,-99.9,-100.00,North,-999,-999.0,-999.0,-999,0.00,,,0.00,,2013-02-11 02:22:00,
2013-02-10 21:30:00,12.0,-99.9,-100.00,North,-999,-999.0,-999.0,-999,0.00,,,0.00,,2013-02-11 02:30:00,
2013-02-10 21:52:00,12.0,-99.9,-100.00,North,-999,-999.0,-999.0,-999,0.00,,,0.00,,2013-02-11 02:52:00,
2013-02-10 22:02:00,12.0,-99.9,-100.00,North,-999,-999.0,-999.0,-999,0.00,,,0.00,,2013-02-11 03:02:00,
2013-02-10 22:22:00,12.0,-99.9,-100.00,North,-999,-999.0,-999.0,-999,0.00,,,0.00,,2013-02-11 03:22:00,
2013-02-10 22:30:00,11.0,-99.9,-100.00,North,-999,-999.0,-999.0,-999,0.00,,,0.00,,2013-02-11 03:30:00,
2013-02-10 22:52:00,11.0,-99.9,-100.00,North,-999,-999.0,-999.0,-999,0.00,,,0.00,,2013-02-11 03:52:00,
2013-02-10 23:02:00,11.0,-99.9,-100.00,North,-999,-999.0,-999.0,-999,0.00,,,0.00,,2013-02-11 04:02:00,
2013-02-10 23:11:00,11.0,-99.9,-100.00,North,-999,-999.0,-999.0,-999,0.00,,,0.00,,2013-02-11 04:11:00,
2013-02-10 23:22:00,11.0,-99.9,-100.00,North,-999,-999.0,-999.0,-999,0.00,,,0.00,,2013-02-11 04:22:00,
2013-02-10 23:30:00,10.0,-99.9,-100.00,North,-999,-999.0,-999.0,-999,0.00,,,0.00,,2013-02-11 04:30:00,
2013-02-10 23:52:00,10.0,-99.9,-100.00,North,-999,-999.0,-999.0,-999,0.00,,,0.00,,2013-02-11 04:52:00,